Tracking 25372 objects as of 24-Jan-2022
HD Live streaming from Space Station
objects crossing your sky now

COSMOS 1137

Track COSMOS 1137 now!
10-day predictions
COSMOS 1137 is classified as:


NORAD ID: 11545
Int'l Code: 1979-084H
Perigee: 1,479.3 km
Apogee: 1,521.4 km
Inclination: 74.0 °
Period: 115.8 minutes
Semi major axis: 7871 km
RCS: 0.7275 m2 (medium)
Launch date: September 25, 1979
Source: Commonwealth of Independent States (former USSR) (CIS)
Launch site: PLESETSK MISSILE AND SPACE COMPLEX (PKMTR)
aabbcc
Your satellite tracking list
Your tracking list is empty




NASA's NSSDC Master Catalog

Two Line Element Set (TLE):
1 11545U 79084H   22023.88258184 -.00000014  00000-0  10612-4 0  9997
2 11545  74.0222 199.8302 0026791 332.6602 133.2820 12.43165572921034
Source of the keplerian elements: AFSPC